TimeCDT,TemperatureF,Dew PointF,Humidity,Sea Level PressureIn,VisibilityMPH,Wind Direction,Wind SpeedMPH,Gust SpeedMPH,PrecipitationIn,Events,Conditions,WindDirDegrees,DateUTC
12:15 AM,71.6,68.0,88,30.14,10.0,Calm,Calm,-,0.00,,Clear,0,2013-09-06 05:15:00
12:35 AM,69.8,68.0,94,30.15,8.0,Calm,Calm,-,0.00,,Clear,0,2013-09-06 05:35:00
12:55 AM,69.8,68.0,94,30.14,10.0,Calm,Calm,-,0.00,,Clear,0,2013-09-06 05:55:00
1:15 AM,69.8,68.0,94,30.14,10.0,Calm,Calm,-,0.00,,Clear,0,2013-09-06 06:15:00
1:35 AM,69.8,68.0,94,30.13,9.0,Calm,Calm,-,0.00,,Clear,0,2013-09-06 06:35:00
1:55 AM,68.0,68.0,100,30.13,10.0,Calm,Calm,-,0.00,,Clear,0,2013-09-06 06:55:00
2:15 AM,66.2,66.2,100,30.12,10.0,Calm,Calm,-,0.00,,Clear,0,2013-09-06 07:15:00
2:35 AM,68.0,68.0,100,30.12,10.0,Calm,Calm,-,0.00,,Clear,0,2013-09-06 07:35:00
2:55 AM,66.2,66.2,100,30.12,10.0,Calm,Calm,-,0.00,,Clear,0,2013-09-06 07:55:00
3:15 AM,66.2,66.2,100,30.12,10.0,Calm,Calm,-,0.00,,Clear,0,2013-09-06 08:15:00
3:35 AM,66.2,66.2,100,30.12,10.0,Calm,Calm,-,0.00,,Clear,0,2013-09-06 08:35:00
3:55 AM,66.2,66.2,100,30.12,10.0,Calm,Calm,-,0.00,,Clear,0,2013-09-06 08:55:00
4:15 AM,66.2,66.2,100,30.12,10.0,ENE,3.5,-,0.00,,Clear,70,2013-09-06 09:15:00
4:35 AM,66.2,66.2,100,30.12,10.0,East,3.5,-,0.00,,Clear,80,2013-09-06 09:35:00
4:55 AM,66.2,66.2,100,30.11,10.0,Calm,Calm,-,0.00,,Clear,0,2013-09-06 09:55:00
5:15 AM,66.2,66.2,100,30.12,10.0,Calm,Calm,-,0.00,,Clear,0,2013-09-06 10:15:00
5:35 AM,64.4,64.4,100,30.12,9.0,Calm,Calm,-,0.00,,Clear,0,2013-09-06 10:35:00
5:55 AM,64.4,64.4,100,30.12,10.0,Calm,Calm,-,0.00,,Clear,0,2013-09-06 10:55:00
6:15 AM,66.2,66.2,100,30.12,8.0,Calm,Calm,-,0.00,,Clear,0,2013-09-06 11:15:00
6:35 AM,66.2,66.2,100,30.13,10.0,Calm,Calm,-,0.00,,Clear,0,2013-09-06 11:35:00
6:50 AM,66.2,66.2,100,30.13,10.0,Calm,Calm,-,N/A,,Mostly Cloudy,0,2013-09-06 11:50:00
7:50 AM,66.2,64.4,94,30.14,10.0,East,4.6,-,N/A,,Mostly Cloudy,80,2013-09-06 12:50:00
8:50 AM,69.8,68.0,94,30.15,10.0,Calm,Calm,-,N/A,,Mostly Cloudy,0,2013-09-06 13:50:00
9:50 AM,75.2,68.0,78,30.16,10.0,SSE,5.8,-,N/A,,Mostly Cloudy,160,2013-09-06 14:50:00
10:50 AM,80.6,66.2,61,30.17,10.0,SSE,8.1,-,N/A,,Scattered Clouds,160,2013-09-06 15:50:00
11:50 AM,84.2,64.4,51,30.15,10.0,Calm,Calm,-,N/A,,Scattered Clouds,0,2013-09-06 16:50:00
12:50 PM,87.8,62.6,43,30.14,10.0,Calm,Calm,-,N/A,,Scattered Clouds,0,2013-09-06 17:50:00
1:50 PM,87.8,64.4,46,30.11,10.0,NE,5.8,-,N/A,,Scattered Clouds,50,2013-09-06 18:50:00
2:50 PM,87.8,62.6,43,30.09,10.0,ENE,8.1,-,N/A,,Scattered Clouds,60,2013-09-06 19:50:00
3:50 PM,89.6,60.8,38,30.07,10.0,NE,6.9,-,N/A,,Scattered Clouds,50,2013-09-06 20:50:00
4:50 PM,89.6,59.0,36,30.06,10.0,East,8.1,-,N/A,,Scattered Clouds,80,2013-09-06 21:50:00
5:50 PM,87.8,59.0,38,30.06,10.0,ENE,4.6,-,N/A,,Scattered Clouds,60,2013-09-06 22:50:00
6:50 PM,84.2,62.6,48,30.05,10.0,NE,4.6,-,N/A,,Partly Cloudy,40,2013-09-06 23:50:00
7:50 PM,78.8,66.2,65,30.06,10.0,NNE,4.6,-,N/A,,Clear,30,2013-09-07 00:50:00
8:55 PM,78.8,66.2,65,30.06,9.0,NE,5.8,-,0.00,,Clear,40,2013-09-07 01:55:00
9:35 PM,75.2,69.8,83,30.07,9.0,NNE,5.8,-,0.00,,Clear,30,2013-09-07 02:35:00
9:55 PM,75.2,69.8,83,30.06,10.0,Calm,Calm,-,0.00,,Clear,0,2013-09-07 02:55:00
10:15 PM,71.6,69.8,94,30.07,10.0,Calm,Calm,-,0.00,,Clear,0,2013-09-07 03:15:00
10:35 PM,73.4,69.8,88,30.07,10.0,Calm,Calm,-,0.00,,Clear,0,2013-09-07 03:35:00
10:55 PM,73.4,69.8,88,30.06,10.0,Calm,Calm,-,0.00,,Clear,0,2013-09-07 03:55:00
11:15 PM,73.4,69.8,88,30.07,10.0,ENE,3.5,-,0.00,,Clear,70,2013-09-07 04:15:00
11:35 PM,73.4,69.8,88,30.06,10.0,Calm,Calm,-,0.00,,Clear,0,2013-09-07 04:35:00
11:55 PM,71.6,69.8,94,30.06,10.0,Calm,Calm,-,0.00,,Clear,0,2013-09-07 04:55:00